This is the latest recevied weather packets stored in our database for station/object HP3ICC-24. If no packets are shown the sender has not sent any weather packets the latest 10 day(s).
| Time | Temp. | Humidity | Pressure | Rain* | Wind** | Luminosity | Snow |
|---|---|---|---|---|---|---|---|
| 1777919001 | 23.33° C | 59% | 1012 hPa | 0 mm | - | - | - |
| 1777918941 | 23.33° C | 59% | 1012 hPa | 0 mm | - | - | - |
| 1777917801 | 23.89° C | 56% | 1012 hPa | 0 mm | - | - | - |
| 1777917741 | 23.89° C | 56% | 1012 hPa | 0 mm | - | - | - |
| 1777916600 | 23.89° C | 57% | 1012 hPa | 0 mm | - | - | - |
| 1777916540 | 23.89° C | 57% | 1012 hPa | 0 mm | - | - | - |
| 1777915400 | 22.78° C | 62% | 1013 hPa | 0 mm | - | - | - |
| 1777915339 | 22.78° C | 62% | 1013 hPa | 0 mm | - | - | - |
| 1777914199 | 22.78° C | 62% | 1013 hPa | 0 mm | - | - | - |
| 1777914139 | 22.78° C | 62% | 1013 hPa | 0 mm | - | - | - |
| 1777912999 | 23.33° C | 59% | 1013 hPa | 0 mm | - | - | - |
| 1777912939 | 23.33° C | 59% | 1013 hPa | 0 mm | - | - | - |
| 1777911798 | 22.78° C | 63% | 1013 hPa | 0 mm | - | - | - |
| 1777911738 | 22.78° C | 63% | 1013 hPa | 0 mm | - | - | - |
| 1777910598 | 22.78° C | 61% | 1013 hPa | 0 mm | - | - | - |
| 1777910538 | 22.78° C | 61% | 1013 hPa | 0 mm | - | - | - |
| 1777909397 | 22.78° C | 62% | 1013 hPa | 0 mm | - | - | - |
| 1777909337 | 22.78° C | 62% | 1013 hPa | 0 mm | - | - | - |
| 1777908196 | 21.67° C | 69% | 1013 hPa | 0 mm | - | - | - |
| 1777908136 | 21.67° C | 69% | 1013 hPa | 0 mm | - | - | - |
| 1777906995 | 21.67° C | 65% | 1013 hPa | 0 mm | - | - | - |
| 1777906935 | 21.67° C | 65% | 1013 hPa | 0 mm | - | - | - |
| 1777905795 | 20.56° C | 72% | 1013 hPa | 0 mm | - | - | - |
| 1777905734 | 20.56° C | 72% | 1013 hPa | 0 mm | - | - | - |
| 1777904594 | 20.56° C | 72% | 1013 hPa | 0 mm | - | - | - |
* Rain latest hour (hover to see other rain measurements)
** Current wind speed in m/s (hover to see current wind gust speed)